• In Switzerland
  • List of Countries
  • For 7 days
  • Water Temperature
  • Satellite Maps
  • Weather Map
  • Weather Widgets
  • user-avatar
    Login

    Hourly Weather Poddubno

    Today, 21 September, Friday

    Time Temperature Precipitation Wind Pressure Humidity
    00:00 +18°C° 0 mm 2 mps 749 mmHg 69%
    01:00 +18°C° 0 mm 2 mps 749 mmHg 70%
    02:00 +18°C° 0 mm 2 mps 749 mmHg 71%
    03:00 +17°C° 0 mm 2 mps 749 mmHg 73%
    04:00 +17°C° 0 mm 2 mps 749 mmHg 74%
    05:00 +16°C° 0 mm 2 mps 749 mmHg 75%
    06:00 +17°C° 0 mm 2 mps 749 mmHg 74%
    07:00 +18°C° 0 mm 2 mps 749 mmHg 73%
    08:00 +18°C° 0 mm 2 mps 749 mmHg 71%
    09:00 +20°C° 0 mm 2 mps 749 mmHg 65%
    10:00 +22°C° 0 mm 3 mps 749 mmHg 60%
    11:00 +25°C° 0 mm 3 mps 749 mmHg 54%
    12:00 +26°C° 0 mm 3 mps 749 mmHg 51%
    13:00 +26°C° 0 mm 4 mps 748 mmHg 48%
    14:00 +27°C° 0 mm 4 mps 747 mmHg 45%
    15:00 +26°C° 0 mm 4 mps 747 mmHg 48%
    16:00 +26°C° 0 mm 4 mps 746 mmHg 51%
    17:00 +25°C° 0 mm 3 mps 746 mmHg 54%
    18:00 +24°C° 0 mm 3 mps 746 mmHg 59%
    19:00 +22°C° 0 mm 3 mps 746 mmHg 64%
    20:00 +20°C° 0 mm 4 mps 745 mmHg 70%
    21:00 +20°C° 0 mm 4 mps 745 mmHg 70%
    22:00 +20°C° 0 mm 4 mps 745 mmHg 71%
    23:00 +19°C° 0 mm 5 mps 744 mmHg 71%

    Tomorrow, 22 September, Saturday

    Time Temperature Precipitation Wind Pressure Humidity
    00:00 +19°C° 0 mm 5 mps 744 mmHg 70%
    01:00 +19°C° 0 mm 5 mps 744 mmHg 70%
    02:00 +19°C° 0 mm 5 mps 743 mmHg 69%
    03:00 +17°C° 0 mm 5 mps 743 mmHg 70%
    04:00 +17°C° 0 mm 5 mps 744 mmHg 70%
    05:00 +17°C° 0 mm 4 mps 744 mmHg 71%
    06:00 +15°C° 0.4 mm 5 mps 744 mmHg 75%
    07:00 +15°C° 0.4 mm 5 mps 745 mmHg 79%
    08:00 +14°C° 0.4 mm 6 mps 746 mmHg 83%
    09:00 +13°C° 0.2 mm 5 mps 746 mmHg 81%
    10:00 +13°C° 0.2 mm 5 mps 747 mmHg 79%
    11:00 +13°C° 0.2 mm 4 mps 747 mmHg 78%
    12:00 +13°C° 0.2 mm 4 mps 748 mmHg 75%
    13:00 +13°C° 0.2 mm 4 mps 748 mmHg 72%
    14:00 +13°C° 0.2 mm 4 mps 748 mmHg 70%
    15:00 +13°C° 0.1 mm 4 mps 748 mmHg 69%
    16:00 +13°C° 0.1 mm 4 mps 748 mmHg 68%
    17:00 +13°C° 0.1 mm 4 mps 747 mmHg 67%
    18:00 +12°C° 0.1 mm 4 mps 747 mmHg 71%
    19:00 +11°C° 0.1 mm 3 mps 747 mmHg 75%
    20:00 +10°C° 0.1 mm 3 mps 747 mmHg 79%
    21:00 +10°C° 0 mm 3 mps 747 mmHg 81%
    22:00 +9°C° 0 mm 3 mps 747 mmHg 82%
    23:00 +9°C° 0 mm 3 mps 747 mmHg 83%

    Day after tomorrow, 23 September, Sunday

    Time Temperature Precipitation Wind Pressure Humidity
    00:00 +9°C° 0 mm 3 mps 747 mmHg 84%
    01:00 +9°C° 0 mm 3 mps 747 mmHg 84%
    02:00 +8°C° 0 mm 3 mps 747 mmHg 84%
    03:00 +8°C° 0 mm 3 mps 747 mmHg 85%
    04:00 +7°C° 0 mm 4 mps 747 mmHg 85%
    05:00 +7°C° 0 mm 4 mps 748 mmHg 86%
    06:00 +8°C° 0 mm 4 mps 748 mmHg 83%
    07:00 +8°C° 0 mm 5 mps 748 mmHg 80%
    08:00 +9°C° 0 mm 6 mps 748 mmHg 77%
    09:00 +10°C° 0 mm 6 mps 748 mmHg 70%
    10:00 +12°C° 0 mm 7 mps 748 mmHg 64%
    11:00 +14°C° 0 mm 7 mps 748 mmHg 57%
    12:00 +14°C° 0 mm 7 mps 748 mmHg 54%
    13:00 +15°C° 0 mm 7 mps 748 mmHg 52%
    14:00 +16°C° 0 mm 7 mps 748 mmHg 49%
    15:00 +15°C° 0 mm 6 mps 748 mmHg 50%
    16:00 +15°C° 0 mm 5 mps 748 mmHg 52%
    17:00 +15°C° 0 mm 4 mps 748 mmHg 53%
    18:00 +14°C° 0 mm 4 mps 748 mmHg 55%
    19:00 +12°C° 0 mm 3 mps 748 mmHg 56%
    20:00 +11°C° 0 mm 3 mps 748 mmHg 58%
    21:00 +11°C° 0 mm 3 mps 747 mmHg 58%
    22:00 +10°C° 0 mm 3 mps 747 mmHg 58%
    23:00 +10°C° 0 mm 2 mps 747 mmHg 57%

    24 September, Monday

    Time Temperature Precipitation Wind Pressure Humidity
    00:00 +10°C° 0.1 mm 3 mps 746 mmHg 59%
    01:00 +11°C° 0.1 mm 3 mps 745 mmHg 60%
    02:00 +11°C° 0.1 mm 3 mps 744 mmHg 61%
    03:00 +11°C° 0.8 mm 4 mps 743 mmHg 70%
    04:00 +9°C° 0.8 mm 5 mps 741 mmHg 78%
    05:00 +9°C° 0.8 mm 6 mps 740 mmHg 87%
    06:00 +9°C° 5 mm 6 mps 738 mmHg 88%
    07:00 +10°C° 5 mm 6 mps 736 mmHg 90%
    08:00 +10°C° 5 mm 7 mps 735 mmHg 91%
    09:00 +11°C° 3.4 mm 7 mps 733 mmHg 91%
    10:00 +12°C° 3.4 mm 8 mps 732 mmHg 90%
    11:00 +13°C° 3.4 mm 8 mps 731 mmHg 89%
    12:00 +15°C° 0.5 mm 9 mps 730 mmHg 85%
    13:00 +16°C° 0.5 mm 9 mps 729 mmHg 80%
    14:00 +17°C° 0.5 mm 9 mps 728 mmHg 76%
    15:00 +15°C° 0.8 mm 9 mps 728 mmHg 78%
    16:00 +13°C° 0.8 mm 8 mps 727 mmHg 80%
    17:00 +12°C° 0.8 mm 7 mps 727 mmHg 81%
    18:00 +11°C° 0.4 mm 9 mps 728 mmHg 82%
    19:00 +8°C° 0.4 mm 10 mps 729 mmHg 83%
    20:00 +7°C° 0.4 mm 12 mps 730 mmHg 83%
    21:00 +7°C° 0.8 mm 12 mps 732 mmHg 83%
    22:00 +5°C° 0.8 mm 13 mps 733 mmHg 82%
    23:00 +5°C° 0.8 mm 13 mps 735 mmHg 81%

    25 September, Tuesday

    Time Temperature Precipitation Wind Pressure Humidity
    00:00 +5°C° 0.5 mm 13 mps 737 mmHg 80%
    01:00 +5°C° 0.5 mm 12 mps 738 mmHg 80%
    02:00 +5°C° 0.5 mm 12 mps 740 mmHg 79%
    03:00 +5°C° 0.1 mm 12 mps 741 mmHg 78%
    04:00 +4°C° 0.1 mm 11 mps 742 mmHg 76%
    05:00 +5°C° 0.1 mm 10 mps 743 mmHg 75%
    06:00 +5°C° 0 mm 10 mps 744 mmHg 73%
    07:00 +5°C° 0 mm 10 mps 745 mmHg 71%
    08:00 +5°C° 0 mm 10 mps 746 mmHg 68%
    09:00 +6°C° 0 mm 10 mps 747 mmHg 63%
    10:00 +7°C° 0 mm 11 mps 748 mmHg 57%
    11:00 +8°C° 0 mm 11 mps 749 mmHg 51%
    12:00 +9°C° 0 mm 11 mps 749 mmHg 49%
    13:00 +11°C° 0 mm 10 mps 749 mmHg 48%
    14:00 +11°C° 0 mm 10 mps 749 mmHg 46%
    15:00 +11°C° 0 mm 9 mps 749 mmHg 49%
    16:00 +10°C° 0 mm 7 mps 749 mmHg 52%
    17:00 +10°C° 0 mm 6 mps 749 mmHg 55%
    18:00 +9°C° 0 mm 6 mps 749 mmHg 58%
    19:00 +8°C° 0 mm 5 mps 749 mmHg 60%
    20:00 +7°C° 0 mm 5 mps 748 mmHg 63%
    21:00 +7°C° 1.1 mm 5 mps 748 mmHg 71%
    22:00 +7°C° 1.1 mm 6 mps 747 mmHg 79%
    23:00 +7°C° 1.1 mm 6 mps 747 mmHg 87%

    26 September, Wednesday

    Time Temperature Precipitation Wind Pressure Humidity
    00:00 +7°C° 0.2 mm 6 mps 747 mmHg 87%
    01:00 +6°C° 0.2 mm 5 mps 746 mmHg 87%
    02:00 +6°C° 0.2 mm 5 mps 746 mmHg 87%
    03:00 +6°C° 0.4 mm 5 mps 747 mmHg 88%
    04:00 +6°C° 0.4 mm 4 mps 747 mmHg 90%
    05:00 +6°C° 0.4 mm 4 mps 748 mmHg 91%
    06:00 +6°C° 0 mm 4 mps 749 mmHg 89%
    07:00 +6°C° 0 mm 4 mps 750 mmHg 87%
    08:00 +6°C° 0 mm 5 mps 751 mmHg 85%
    09:00 +7°C° 0 mm 4 mps 752 mmHg 78%
    10:00 +10°C° 0 mm 4 mps 752 mmHg 71%
    11:00 +11°C° 0 mm 4 mps 753 mmHg 64%
    12:00 +12°C° 0 mm 5 mps 753 mmHg 62%
    13:00 +12°C° 0 mm 5 mps 754 mmHg 60%
    14:00 +13°C° 0 mm 5 mps 754 mmHg 58%
    15:00 +12°C° 0.1 mm 5 mps 754 mmHg 62%
    16:00 +12°C° 0.1 mm 4 mps 754 mmHg 65%
    17:00 +12°C° 0.1 mm 4 mps 754 mmHg 69%
    18:00 +11°C° 0.2 mm 3 mps 755 mmHg 74%
    19:00 +10°C° 0.2 mm 3 mps 755 mmHg 78%
    20:00 +8°C° 0.2 mm 3 mps 755 mmHg 83%
    21:00 +8°C° 0 mm 3 mps 756 mmHg 84%
    22:00 +7°C° 0 mm 2 mps 756 mmHg 86%
    23:00 +7°C° 0 mm 2 mps 756 mmHg 88%
    Show more